JBU454 KLAX-KSFO

Flight info

Callsign JBU454
Flight time 0h 49m
Altitude 34000
Route SUMMR2 STOKD SERFR SERFR4
Aircraft A320/M-SDE3FGHIRWY/LB1

Departure

Time 2026-04-24 10:53
Airport Los Angeles International Airport (KLAX)

Arrival

Time 2026-04-24 11:42
Airport San Francisco International Airport (KSFO)
Time Latitude Longitude Altitude Speed Heading
2026-04-24 10:43 33.94177 -118.41100 126 ft 0 kts 82°
2026-04-24 10:45 33.94176 -118.41107 126 ft 2 kts 82°
2026-04-24 10:45 33.94173 -118.41133 124 ft 8 kts 82°
2026-04-24 10:45 33.94168 -118.41188 124 ft 4 kts 76°
2026-04-24 10:45 33.94149 -118.41204 121 ft 4 kts 349°
2026-04-24 10:46 33.94140 -118.41202 121 ft 0 kts 352°
2026-04-24 10:47 33.94152 -118.41204 121 ft 4 kts 352°
2026-04-24 10:48 33.94194 -118.41211 124 ft 8 kts 352°
2026-04-24 10:48 33.94282 -118.41224 124 ft 16 kts 352°
2026-04-24 10:48 33.94404 -118.41242 123 ft 20 kts 353°
2026-04-24 10:48 33.94555 -118.41263 124 ft 23 kts 354°
2026-04-24 10:49 33.94698 -118.41270 123 ft 11 kts 40°
2026-04-24 10:49 33.94725 -118.41165 124 ft 16 kts 83°
2026-04-24 10:49 33.94738 -118.41011 126 ft 20 kts 84°
2026-04-24 10:49 33.94755 -118.40841 126 ft 21 kts 81°
2026-04-24 10:50 33.94777 -118.40656 124 ft 23 kts 82°
2026-04-24 10:50 33.94798 -118.40457 123 ft 25 kts 83°
2026-04-24 10:50 33.94821 -118.40257 123 ft 22 kts 81°
2026-04-24 10:50 33.94856 -118.40084 123 ft 15 kts 48°
2026-04-24 10:51 33.94946 -118.40062 123 ft 13 kts
2026-04-24 10:51 33.95024 -118.40082 122 ft 7 kts 311°
2026-04-24 10:51 33.95026 -118.40109 124 ft 3 kts 260°
2026-04-24 10:51 33.95023 -118.40139 125 ft 5 kts 264°
2026-04-24 10:52 33.95006 -118.40312 126 ft 52 kts 263°
2026-04-24 10:52 33.94934 -118.41006 126 ft 113 kts 263°
2026-04-24 10:52 33.94820 -118.42133 125 ft 156 kts 263°
2026-04-24 10:52 33.94682 -118.43526 474 ft 167 kts 263°
2026-04-24 10:53 33.94532 -118.44895 1109 ft 164 kts 263°
2026-04-24 10:53 33.94394 -118.46304 1522 ft 179 kts 264°
2026-04-24 10:53 33.94296 -118.47891 1775 ft 201 kts 268°
2026-04-24 10:53 33.94239 -118.49679 2047 ft 227 kts 269°
2026-04-24 10:54 33.94168 -118.51679 2440 ft 251 kts 268°
2026-04-24 10:54 33.94053 -118.53829 3165 ft 260 kts 272°
2026-04-24 10:54 33.94456 -118.55971 4041 ft 261 kts 297°
2026-04-24 10:54 33.95351 -118.57879 4961 ft 263 kts 301°
2026-04-24 10:55 33.96279 -118.59781 5870 ft 265 kts 301°
2026-04-24 10:55 33.97215 -118.61693 6738 ft 267 kts 301°
2026-04-24 10:55 33.98159 -118.63626 7602 ft 268 kts 301°
2026-04-24 10:55 33.99100 -118.65565 8459 ft 269 kts 300°
2026-04-24 10:56 34.00046 -118.67513 9340 ft 270 kts 300°
2026-04-24 10:56 34.01000 -118.69475 10020 ft 272 kts 300°
2026-04-24 10:56 34.01970 -118.71475 10483 ft 286 kts 299°
2026-04-24 10:56 34.03014 -118.73637 10651 ft 310 kts 299°
2026-04-24 10:57 34.04152 -118.75991 10826 ft 330 kts 299°
2026-04-24 10:57 34.05223 -118.78203 11289 ft 336 kts 299°
2026-04-24 10:57 34.06438 -118.80707 11969 ft 339 kts 299°
2026-04-24 10:57 34.07626 -118.83166 12634 ft 341 kts 298°
2026-04-24 10:58 34.08820 -118.85646 13330 ft 343 kts 298°
2026-04-24 10:58 34.10023 -118.88146 14001 ft 345 kts 298°
2026-04-24 10:58 34.11224 -118.90649 14596 ft 347 kts 297°
2026-04-24 10:58 34.12439 -118.93178 15167 ft 349 kts 297°
2026-04-24 10:59 34.13661 -118.95716 15706 ft 352 kts 297°
2026-04-24 10:59 34.14898 -118.98285 16290 ft 355 kts 297°
2026-04-24 10:59 34.16140 -119.00867 16866 ft 357 kts 297°
2026-04-24 10:59 34.17391 -119.03472 17446 ft 360 kts 297°
2026-04-24 11:00 34.18655 -119.06098 18014 ft 363 kts 297°
2026-04-24 11:00 34.19926 -119.08743 18526 ft 366 kts 297°
2026-04-24 11:00 34.21203 -119.11407 19037 ft 368 kts 297°
2026-04-24 11:00 34.22488 -119.14094 19557 ft 370 kts 297°
2026-04-24 11:01 34.23796 -119.16831 20056 ft 373 kts 297°
2026-04-24 11:01 34.25081 -119.19520 20521 ft 375 kts 296°
2026-04-24 11:01 34.26404 -119.22291 21029 ft 377 kts 296°
2026-04-24 11:01 34.27721 -119.25049 21507 ft 379 kts 296°
2026-04-24 11:02 34.29042 -119.27822 21973 ft 381 kts 296°
2026-04-24 11:02 34.30367 -119.30606 22443 ft 384 kts 296°
2026-04-24 11:02 34.31702 -119.33410 22885 ft 386 kts 296°
2026-04-24 11:02 34.33049 -119.36238 23317 ft 388 kts 296°
2026-04-24 11:03 34.34400 -119.39082 23722 ft 390 kts 296°
2026-04-24 11:03 34.35751 -119.41934 24075 ft 392 kts 296°
2026-04-24 11:03 34.37113 -119.44813 24453 ft 395 kts 296°
2026-04-24 11:03 34.38479 -119.47701 24806 ft 397 kts 296°
2026-04-24 11:04 34.39851 -119.50602 25157 ft 399 kts 296°
2026-04-24 11:04 34.41381 -119.53427 25498 ft 405 kts 304°
2026-04-24 11:04 34.43260 -119.55907 25846 ft 411 kts 310°
2026-04-24 11:04 34.45329 -119.58424 26195 ft 413 kts 309°
2026-04-24 11:05 34.47353 -119.60903 26549 ft 415 kts 309°
2026-04-24 11:05 34.49256 -119.63245 26880 ft 417 kts 309°
2026-04-24 11:05 34.51400 -119.65890 27212 ft 420 kts 309°
2026-04-24 11:05 34.53447 -119.68414 27635 ft 420 kts 309°
2026-04-24 11:06 34.55502 -119.70944 28129 ft 419 kts 309°
2026-04-24 11:06 34.57532 -119.73444 28619 ft 417 kts 309°
2026-04-24 11:06 34.59504 -119.75876 29119 ft 416 kts 309°
2026-04-24 11:06 34.61528 -119.78373 29614 ft 414 kts 309°
2026-04-24 11:07 34.65558 -119.83363 30554 ft 412 kts 309°
2026-04-24 11:07 34.67559 -119.85845 30992 ft 411 kts 308°
2026-04-24 11:07 34.69556 -119.88321 31411 ft 410 kts 308°
2026-04-24 11:08 34.71548 -119.90794 31852 ft 409 kts 308°
2026-04-24 11:08 34.73538 -119.93265 32407 ft 408 kts 306°
2026-04-24 11:08 34.75512 -119.95717 32920 ft 404 kts 307°
2026-04-24 11:08 34.77473 -119.98152 33400 ft 401 kts 307°
2026-04-24 11:09 34.79421 -120.00571 33827 ft 400 kts 307°
2026-04-24 11:09 34.81374 -120.03000 33987 ft 405 kts 307°
2026-04-24 11:09 34.85417 -120.08048 34005 ft 421 kts 307°
2026-04-24 11:10 34.89564 -120.13231 34006 ft 433 kts 307°
2026-04-24 11:10 34.93719 -120.18417 34011 ft 434 kts 307°
2026-04-24 11:11 34.98039 -120.23807 34010 ft 435 kts 307°
2026-04-24 11:11 35.02259 -120.29099 34016 ft 435 kts 307°
2026-04-24 11:12 35.06464 -120.34383 34008 ft 436 kts 307°
2026-04-24 11:12 35.10749 -120.39673 34010 ft 438 kts 309°
2026-04-24 11:13 35.14445 -120.43838 34009 ft 440 kts 311°
2026-04-24 11:13 35.19794 -120.49655 34000 ft 440 kts 310°
2026-04-24 11:14 35.23635 -120.53901 33997 ft 440 kts 310°
2026-04-24 11:14 35.28244 -120.59087 33999 ft 441 kts 310°
2026-04-24 11:15 35.32720 -120.64151 33995 ft 442 kts 310°
2026-04-24 11:15 35.37242 -120.69258 34000 ft 443 kts 310°
2026-04-24 11:16 35.41778 -120.74365 34008 ft 443 kts 310°
2026-04-24 11:16 35.46339 -120.79525 34044 ft 443 kts 310°
2026-04-24 11:17 35.51092 -120.84348 34045 ft 449 kts 316°
2026-04-24 11:17 35.56085 -120.88978 34049 ft 450 kts 315°
2026-04-24 11:18 35.61082 -120.93631 34042 ft 450 kts 315°
2026-04-24 11:18 35.66081 -120.98283 34041 ft 451 kts 316°
2026-04-24 11:19 35.71092 -121.02945 34041 ft 452 kts 316°
2026-04-24 11:19 35.76144 -121.07654 34039 ft 453 kts 316°
2026-04-24 11:20 35.81124 -121.12317 34039 ft 453 kts 316°
2026-04-24 11:20 35.86152 -121.17022 34041 ft 454 kts 316°
2026-04-24 11:21 35.91186 -121.21740 34029 ft 455 kts 316°
2026-04-24 11:21 35.96350 -121.26373 34037 ft 458 kts 320°
2026-04-24 11:22 36.01487 -121.30453 34034 ft 461 kts 322°
2026-04-24 11:22 36.06805 -121.34564 34035 ft 461 kts 321°
2026-04-24 11:23 36.12195 -121.38852 34047 ft 461 kts 321°
2026-04-24 11:23 36.17590 -121.43235 34081 ft 458 kts 321°
2026-04-24 11:24 36.20191 -121.45352 33599 ft 455 kts 321°
2026-04-24 11:24 36.22859 -121.47526 32430 ft 459 kts 322°
2026-04-24 11:24 36.25526 -121.49692 31584 ft 458 kts 322°
2026-04-24 11:24 36.28215 -121.51817 30579 ft 462 kts 328°
2026-04-24 11:25 36.31154 -121.53512 29274 ft 468 kts 333°
2026-04-24 11:25 36.34138 -121.55133 28493 ft 471 kts 333°
2026-04-24 11:25 36.37161 -121.56764 27515 ft 475 kts 333°
2026-04-24 11:25 36.40196 -121.58396 26263 ft 474 kts 333°
2026-04-24 11:26 36.43201 -121.60010 25508 ft 469 kts 333°
2026-04-24 11:26 36.46183 -121.61618 24764 ft 465 kts 333°
2026-04-24 11:26 36.49142 -121.63220 24023 ft 462 kts 333°
2026-04-24 11:26 36.52072 -121.64816 23238 ft 459 kts 333°
2026-04-24 11:27 36.54977 -121.66402 22501 ft 454 kts 333°
2026-04-24 11:27 36.57853 -121.67968 21785 ft 448 kts 333°
2026-04-24 11:27 36.60699 -121.69515 21067 ft 443 kts 333°
2026-04-24 11:27 36.63497 -121.71037 20389 ft 439 kts 333°
2026-04-24 11:28 36.66285 -121.72560 19713 ft 434 kts 333°
2026-04-24 11:28 36.69031 -121.74066 19068 ft 429 kts 333°
2026-04-24 11:28 36.71672 -121.75513 18461 ft 425 kts 334°
2026-04-24 11:28 36.74406 -121.77014 17787 ft 421 kts 334°
2026-04-24 11:29 36.77072 -121.78476 17210 ft 417 kts 334°
2026-04-24 11:29 36.79721 -121.79926 16586 ft 413 kts 335°
2026-04-24 11:29 36.82337 -121.81358 16017 ft 410 kts 335°
2026-04-24 11:29 36.84937 -121.82787 15419 ft 406 kts 335°
2026-04-24 11:30 36.87481 -121.84189 14832 ft 403 kts 335°
2026-04-24 11:30 36.90067 -121.85618 14207 ft 400 kts 336°
2026-04-24 11:30 36.92602 -121.87019 13556 ft 397 kts 336°
2026-04-24 11:30 36.95121 -121.88403 12912 ft 393 kts 336°
2026-04-24 11:31 36.97612 -121.89770 12270 ft 389 kts 335°
2026-04-24 11:31 37.00072 -121.91124 11641 ft 385 kts 335°
2026-04-24 11:31 37.02493 -121.92457 11080 ft 378 kts 335°
2026-04-24 11:31 37.04871 -121.93767 10841 ft 371 kts 335°
2026-04-24 11:32 37.07246 -121.95076 10733 ft 371 kts 335°
2026-04-24 11:32 37.09589 -121.96370 10188 ft 367 kts 335°
2026-04-24 11:32 37.11904 -121.97651 9558 ft 363 kts 335°
2026-04-24 11:32 37.14206 -121.98928 8883 ft 359 kts 335°
2026-04-24 11:33 37.16523 -122.00217 7760 ft 370 kts 335°
2026-04-24 11:33 37.18889 -122.01530 6935 ft 371 kts 335°
2026-04-24 11:33 37.21240 -122.02833 6211 ft 368 kts 335°
2026-04-24 11:33 37.23572 -122.04126 5486 ft 364 kts 335°
2026-04-24 11:34 37.25913 -122.05424 4775 ft 361 kts 335°
2026-04-24 11:34 37.28167 -122.06674 4192 ft 357 kts 335°
2026-04-24 11:34 37.30444 -122.07940 4005 ft 358 kts 335°
2026-04-24 11:34 37.32714 -122.09206 3963 ft 352 kts 335°
2026-04-24 11:35 37.34697 -122.10311 3865 ft 333 kts 335°
2026-04-24 11:35 37.36826 -122.11493 3729 ft 302 kts 335°
2026-04-24 11:35 37.38734 -122.12292 3602 ft 278 kts 343°
2026-04-24 11:35 37.40555 -122.12910 3476 ft 257 kts 343°
2026-04-24 11:36 37.42192 -122.13471 3352 ft 239 kts 343°
2026-04-24 11:36 37.43745 -122.14002 3232 ft 225 kts 343°
2026-04-24 11:36 37.44736 -122.14340 3147 ft 219 kts 343°
2026-04-24 11:36 37.46502 -122.14946 3024 ft 208 kts 342°
2026-04-24 11:37 37.47857 -122.15416 3011 ft 195 kts 342°
2026-04-24 11:37 37.49149 -122.15863 3033 ft 192 kts 342°
2026-04-24 11:37 37.50434 -122.16308 3023 ft 191 kts 342°
2026-04-24 11:37 37.51652 -122.16729 3020 ft 192 kts 342°
2026-04-24 11:38 37.52864 -122.17371 3016 ft 188 kts 324°
2026-04-24 11:38 37.53817 -122.18480 2941 ft 186 kts 304°
2026-04-24 11:38 37.54454 -122.19883 2767 ft 184 kts 296°
2026-04-24 11:38 37.55055 -122.21306 2544 ft 182 kts 296°
2026-04-24 11:39 37.55648 -122.22711 2305 ft 181 kts 296°
2026-04-24 11:39 37.56232 -122.24096 2075 ft 176 kts 296°
2026-04-24 11:39 37.56797 -122.25437 1853 ft 170 kts 296°
2026-04-24 11:39 37.57335 -122.26713 1639 ft 161 kts 296°
2026-04-24 11:40 37.57858 -122.27956 1426 ft 160 kts 296°
2026-04-24 11:40 37.58376 -122.29185 1207 ft 158 kts 295°
2026-04-24 11:40 37.58890 -122.30407 997 ft 157 kts 296°
2026-04-24 11:40 37.59397 -122.31612 779 ft 151 kts 296°
2026-04-24 11:41 37.59847 -122.32680 598 ft 143 kts 296°
2026-04-24 11:41 37.60153 -122.33410 481 ft 141 kts 296°
2026-04-24 11:41 37.60761 -122.34862 252 ft 139 kts 296°
2026-04-24 11:41 37.61208 -122.35927 72 ft 137 kts 295°
2026-04-24 11:42 37.61502 -122.36633 20 ft 127 kts 296°
2026-04-24 11:42 37.61837 -122.37429 18 ft 78 kts 296°
2026-04-24 11:42 37.62018 -122.37866 24 ft 43 kts 297°
2026-04-24 11:42 37.62145 -122.38199 23 ft 31 kts 295°
2026-04-24 11:43 37.62218 -122.38467 21 ft 33 kts 272°
2026-04-24 11:43 37.62176 -122.38622 20 ft 18 kts 203°
2026-04-24 11:43 37.62109 -122.38541 21 ft 15 kts 118°
2026-04-24 11:43 37.62058 -122.38421 21 ft 16 kts 117°
2026-04-24 11:44 37.62007 -122.38299 25 ft 16 kts 118°
2026-04-24 11:44 37.61949 -122.38163 23 ft 19 kts 118°
2026-04-24 11:44 37.61880 -122.38004 24 ft 22 kts 119°
2026-04-24 11:44 37.61740 -122.37952 18 ft 24 kts 176°
2026-04-24 11:45 37.61579 -122.38032 14 ft 27 kts 211°
2026-04-24 11:45 37.61556 -122.38111 16 ft 10 kts 323°
2026-04-24 11:45 37.61626 -122.38128 15 ft 4 kts 349°
2026-04-24 11:45 37.61653 -122.38126 16 ft 4 kts
2026-04-24 11:46 37.61660 -122.38126 16 ft 0 kts